EW9200 Weather Reports


time (UTC)temp
C
wind
direction
speed
KPH
gust
KPH
rain 1hr
cm
rain 24hr
cm
rain mn
cm
humidity
%
barometer
mb
20260904102033 23 0 0.0 1.6 0.00 0.00 0.00 96 1012.7
20260904101556 22 0 0.0 0.0 0.00 0.00 0.00 96 1012.7
20260904101029 22 0 0.0 0.0 0.00 0.00 0.00 96 1012.6
20260904100529 22 0 0.0 0.0 0.00 0.00 0.00 97 1012.8
20260904100053 22 0 0.0 0.0 0.00 0.00 0.00 97 1012.8
20260904095529 22 0 0.0 0.0 0.00 0.00 0.00 96 1012.9
20260904095028 23 0 0.0 0.0 0.00 0.00 0.00 96 1012.9
20260904094547 23 0 0.0 0.0 0.00 0.00 0.00 96 1012.8
20260904094030 23 0 0.0 0.0 0.00 0.00 0.00 96 1013.0
20260904093528 23 0 0.0 0.0 0.00 0.00 0.00 96 1013.0
20260904093100 23 0 0.0 0.0 0.00 0.00 0.00 96 1013.0
20260904092530 23 0 0.0 0.0 0.00 0.00 0.00 96 1013.1
20260904092029 23 0 0.0 0.0 0.00 0.00 0.00 96 1013.1
20260904091550 23 0 0.0 0.0 0.00 0.00 0.00 95 1013.1
20260904091027 23 0 0.0 0.0 0.00 0.00 0.00 95 1013.1
20260904090530 23 0 0.0 0.0 0.00 0.00 0.00 95 1013.1
20260904090046 23 0 0.0 0.0 0.00 0.00 0.00 95 1013.1
20260904085533 23 0 0.0 0.0 0.00 0.00 0.00 94 1013.1
20260904085030 23 0 0.0 0.0 0.00 0.00 0.00 94 1013.1
20260904084545 23 0 0.0 0.0 0.00 0.00 0.00 94 1013.1
20260904084027 23 0 0.0 0.0 0.00 0.00 0.00 94 1013.1
20260904083529 23 0 0.0 0.0 0.00 0.00 0.00 94 1013.1
20260904083054 24 0 0.0 0.0 0.00 0.00 0.00 93 1013.0
20260904082528 24 0 0.0 0.0 0.00 0.00 0.00 93 1013.0
20260904082026 24 0 0.0 0.0 0.00 0.00 0.00 93 1012.9
20260904081546 24 0 0.0 0.0 0.00 0.00 0.00 93 1012.8
20260904081030 24 0 0.0 0.0 0.00 0.00 0.00 93 1012.7
20260904080528 24 0 0.0 1.6 0.00 0.00 0.00 93 1012.7
20260904080045 24 221 0.0 1.6 0.00 0.00 0.00 93 1012.6
20260904075529 24 221 0.0 1.6 0.00 0.00 0.00 93 1012.5
20260904075026 24 0 0.0 6.4 0.00 0.00 0.00 94 1012.4
20260904074546 24 0 0.0 6.4 0.00 0.00 0.00 94 1012.5
20260904074029 24 0 0.0 3.2 0.00 0.00 0.00 95 1012.3
20260904073528 24 240 0.0 3.2 0.00 0.00 0.00 96 1012.3
20260904073051 23 255 0.0 1.6 0.00 0.00 0.00 96 1012.3
20260904072528 23 0 0.0 1.6 0.00 0.00 0.00 97 1012.4
20260904072029 23 0 0.0 1.6 0.00 0.00 0.00 97 1012.5
20260904071604 23 0 0.0 0.0 0.00 0.00 0.00 98 1012.5
20260904071029 23 0 0.0 0.0 0.00 0.00 0.00 97 1012.4
20260904070529 23 0 0.0 0.0 0.00 0.00 0.00 97 1012.7
20260904070047 23 0 0.0 0.0 0.00 0.00 0.00 96 1012.8
20260904065528 23 0 0.0 0.0 0.00 0.00 0.00 96 1012.9
20260904065028 23 0 0.0 0.0 0.00 0.00 0.00 96 1013.0
20260904064547 23 0 0.0 0.0 0.00 0.00 0.00 96 1012.9
20260904064028 23 0 0.0 0.0 0.00 0.00 0.00 96 1013.0
20260904063528 23 0 0.0 0.0 0.00 0.00 0.00 95 1013.2
20260904063042 23 0 0.0 0.0 0.00 0.00 0.00 95 1013.2
20260904062530 24 0 0.0 0.0 0.00 0.00 0.00 95 1013.3
20260904062027 24 0 0.0 0.0 0.00 0.00 0.00 95 1013.4
20260904061548 24 0 0.0 0.0 0.00 0.00 0.00 95 1013.5
20260904061029 24 0 0.0 0.0 0.00 0.00 0.00 94 1013.5
20260904060529 24 0 0.0 0.0 0.00 0.00 0.00 94 1013.5
20260904060058 24 0 0.0 0.0 0.00 0.00 0.00 94 1013.6
20260904055528 24 0 0.0 0.0 0.00 0.00 0.00 93 1013.6
20260904055026 25 0 0.0 0.0 0.00 0.00 0.00 93 1013.5
20260904054547 25 0 0.0 0.0 0.00 0.00 0.00 92 1013.5
20260904054030 25 0 0.0 0.0 0.00 0.00 0.00 92 1013.5
20260904053528 25 0 0.0 0.0 0.00 0.00 0.00 92 1013.8
20260904053058 25 0 0.0 0.0 0.00 0.00 0.00 92 1013.5
20260904052529 25 0 0.0 0.0 0.00 0.00 0.00 91 1013.3
20260904052027 25 0 0.0 0.0 0.00 0.00 0.00 91 1013.5
20260904051549 25 0 0.0 0.0 0.00 0.00 0.00 90 1013.4
20260904051030 25 0 0.0 0.0 0.00 0.00 0.00 89 1013.3
20260904050615 26 0 0.0 0.0 0.00 0.00 0.00 88 1013.3
20260904050049 26 0 0.0 3.2 0.00 0.00 0.00 88 1013.3
20260904045528 26 0 0.0 3.2 0.00 0.00 0.00 88 1013.4
20260904045029 26 0 0.0 1.6 0.00 0.00 0.00 88 1013.3
20260904044546 26 0 0.0 1.6 0.00 0.00 0.00 88 1013.4
20260904044028 26 215 0.0 1.6 0.00 0.00 0.00 88 1013.4
20260904043528 26 0 0.0 1.6 0.00 0.00 0.00 89 1013.4
20260904043043 26 185 0.0 1.6 0.00 0.00 0.00 89 1013.5
20260904042528 26 143 0.0 1.6 0.00 0.00 0.00 89 1013.5
20260904042029 26 0 0.0 1.6 0.00 0.00 0.00 89 1013.4
20260904041551 26 194 0.0 3.2 0.00 0.00 0.00 89 1013.5
20260904041030 26 0 0.0 3.2 0.00 0.00 0.00 89 1013.5
20260904040527 26 0 0.0 3.2 0.00 0.00 0.00 89 1013.5
20260904040049 26 0 0.0 1.6 0.00 0.00 0.00 89 1013.5
20260904035528 26 0 0.0 1.6 0.00 0.00 0.00 89 1013.5
20260904035028 26 0 0.0 1.6 0.00 0.00 0.00 89 1013.5
20260904034554 26 0 0.0 1.6 0.00 0.00 0.00 89 1013.5
20260904034026 26 0 0.0 1.6 0.00 0.00 0.00 90 1013.5
20260904033529 26 0 0.0 1.6 0.00 0.00 0.00 90 1013.5
20260904033050 26 0 0.0 0.0 0.00 0.00 0.00 90 1013.6
20260904032528 26 0 0.0 0.0 0.00 0.00 0.00 90 1013.5
20260904032028 27 0 0.0 0.0 0.00 0.00 0.00 90 1013.5
20260904031551 26 0 0.0 0.0 0.00 0.00 0.00 90 1013.5
20260904031028 26 0 0.0 0.0 0.00 0.00 0.00 91 1013.6
20260904030529 26 0 0.0 0.0 0.00 0.00 0.00 91 1013.7
20260904030048 26 0 0.0 0.0 0.00 0.00 0.00 91 1013.6
20260904025529 26 0 0.0 0.0 0.00 0.00 0.00 90 1013.7
20260904025029 26 0 0.0 0.0 0.00 0.00 0.00 90 1013.7
20260904024547 27 0 0.0 0.0 0.00 0.00 0.00 89 1013.7
20260904024027 27 0 0.0 0.0 0.00 0.00 0.00 89 1013.7
20260904023532 27 0 0.0 0.0 0.00 0.00 0.00 88 1013.6
20260904023044 27 0 0.0 0.0 0.00 0.00 0.00 88 1013.5
20260904022528 27 0 0.0 0.0 0.00 0.00 0.00 87 1013.5
20260904022030 27 0 0.0 0.0 0.00 0.00 0.00 87 1013.5
20260904021555 27 0 0.0 0.0 0.00 0.00 0.00 87 1013.4
20260904021031 28 0 0.0 0.0 0.00 0.00 0.00 86 1013.3
20260904020530 28 0 0.0 0.0 0.00 0.00 0.00 86 1013.4
20260904020050 28 0 0.0 0.0 0.00 0.00 0.00 86 1013.2
20260904015529 28 0 0.0 0.0 0.00 0.00 0.00 85 1013.2
20260904015031 28 0 0.0 0.0 0.00 0.00 0.00 85 1013.2
20260904014549 28 0 0.0 0.0 0.00 0.00 0.00 84 1013.1
20260904014029 28 0 0.0 0.0 0.00 0.00 0.00 84 1013.0
20260904013529 28 0 0.0 0.0 0.00 0.00 0.00 84 1012.9
20260904013106 28 205 0.0 0.0 0.00 0.00 0.00 84 1012.8
20260904012528 29 0 0.0 0.0 0.00 0.00 0.00 83 1012.7
20260904012030 29 0 0.0 3.2 0.00 0.00 0.00 83 1012.5
20260904011558 29 0 0.0 3.2 0.00 0.00 0.00 82 1012.5
20260904011029 29 150 0.0 4.8 0.00 0.00 0.00 82 1012.4
20260904010527 29 191 1.6 4.8 0.00 0.00 0.00 80 1012.2
20260904010050 29 162 0.0 4.8 0.00 0.00 0.00 80 1012.0
20260904005528 30 147 0.0 3.2 0.00 0.00 0.00 79 1011.9
20260904005029 30 0 0.0 1.6 0.00 0.00 0.00 78 1011.9
20260904004548 30 0 0.0 3.2 0.00 0.00 0.00 78 1011.8
20260904004031 30 158 0.0 3.2 0.00 0.00 0.00 78 1011.8
20260904003528 30 140 1.6 3.2 0.00 0.00 0.00 78 1011.9
20260904003055 30 160 0.0 1.6 0.00 0.00 0.00 77 1011.8
20260904002527 30 0 0.0 1.6 0.00 0.00 0.00 76 1012.1
20260904002029 30 0 0.0 3.2 0.00 0.00 0.00 76 1012.0
20260904001604 30 146 0.0 3.2 0.00 0.00 0.00 75 1012.0
20260904001028 31 0 0.0 3.2 0.00 0.00 0.00 75 1012.0
20260904000529 31 195 0.0 3.2 0.00 0.00 0.00 75 1012.0
20260904000051 31 154 0.0 4.8 0.00 0.00 0.00 74 1012.1
20260903235530 31 145 1.6 4.8 0.00 0.00 0.00 74 1012.2
20260903235031 31 139 0.0 3.2 0.00 0.00 0.00 73 1012.1
20260903234548 31 0 0.0 3.2 0.00 0.00 0.00 73 1012.2
20260903234027 31 241 0.0 1.6 0.00 0.00 0.00 73 1012.2
20260903233532 31 0 0.0 1.6 0.00 0.00 0.00 72 1012.1
20260903233042 31 240 0.0 3.2 0.00 0.00 0.00 72 1012.1
20260903232528 32 0 0.0 3.2 0.00 0.00 0.00 72 1012.1
20260903232028 32 217 0.0 8.0 0.00 0.00 0.00 72 1012.3
20260903231554 32 250 1.6 9.7 0.00 0.00 0.00 71 1012.2
20260903231027 32 162 1.6 9.7 0.00 0.00 0.00 71 1012.5
20260903230529 32 202 3.2 9.7 0.00 0.00 0.00 70 1012.3
20260903230046 32 210 3.2 9.7 0.00 0.00 0.00 70 1012.5
20260903225529 32 197 3.2 8.0 0.00 0.00 0.00 71 1012.5
20260903225029 32 206 1.6 9.7 0.00 0.00 0.00 70 1012.4
20260903224542 32 208 3.2 9.7 0.00 0.00 0.00 70 1012.5
20260903224027 32 206 0.0 6.4 0.00 0.00 0.00 70 1012.5
20260903223528 32 157 1.6 6.4 0.00 0.00 0.00 71 1012.6
20260903223056 32 155 1.6 6.4 0.00 0.00 0.00 70 1012.5
20260903222526 32 195 0.0 6.4 0.00 0.00 0.00 72 1012.5
20260903222028 32 205 1.6 6.4 0.00 0.00 0.00 71 1012.5
20260903221548 32 215 1.6 6.4 0.00 0.00 0.00 70 1012.6
20260903221028 32 141 1.6 4.8 0.00 0.00 0.00 68 1012.5
20260903220527 33 0 1.6 4.8 0.00 0.00 0.00 67 1012.6
20260903220106 33 205 1.6 6.4 0.00 0.00 0.00 66 1012.5
20260903215529 33 210 1.6 6.4 0.00 0.00 0.00 65 1012.5
20260903215028 34 264 1.6 8.0 0.00 0.00 0.00 62 1012.5
20260903214553 34 168 1.6 8.0 0.00 0.00 0.00 61 1012.5
20260903214030 35 142 3.2 8.0 0.00 0.00 0.00 60 1012.6
20260903213533 35 202 1.6 8.0 0.00 0.00 0.00 59 1012.5
20260903213049 35 166 1.6 4.8 0.00 0.00 0.00 61 1012.5
20260903212532 35 175 1.6 6.4 0.00 0.00 0.00 59 1012.6
20260903212030 35 221 3.2 6.4 0.00 0.00 0.00 60 1012.6
20260903211544 35 253 3.2 8.0 0.00 0.00 0.00 60 1012.6
20260903211030 35 214 3.2 9.7 0.00 0.00 0.00 61 1012.7
20260903210529 35 130 3.2 9.7 0.00 0.00 0.00 61 1012.7
20260903210100 35 187 4.8 9.7 0.00 0.00 0.00 61 1012.8
20260903205530 35 201 1.6 6.4 0.00 0.00 0.00 63 1012.9
20260903205028 34 193 1.6 6.4 0.00 0.00 0.00 63 1012.9
20260903204548 34 162 3.2 8.0 0.00 0.00 0.00 62 1012.9
20260903204029 34 170 3.2 8.0 0.00 0.00 0.00 62 1012.9
20260903203530 34 182 4.8 8.0 0.00 0.00 0.00 64 1012.9
20260903203048 34 216 3.2 8.0 0.00 0.00 0.00 65 1013.0
20260903202532 34 161 4.8 8.0 0.00 0.00 0.00 65 1013.1
20260903202031 34 223 3.2 8.0 0.00 0.00 0.00 64 1013.1
20260903201545 34 172 3.2 6.4 0.00 0.00 0.00 64 1013.2
20260903201030 34 224 1.6 8.0 0.00 0.00 0.00 67 1013.1
20260903200530 33 208 1.6 8.0 0.00 0.00 0.00 65 1013.2
20260903200105 33 210 3.2 8.0 0.00 0.00 0.00 66 1013.2
20260903195530 33 206 3.2 8.0 0.00 0.00 0.00 65 1013.3
20260903195030 33 203 1.6 8.0 0.00 0.00 0.00 64 1013.3
20260903194554 33 178 3.2 8.0 0.00 0.00 0.00 65 1013.5
20260903194030 33 201 3.2 9.7 0.00 0.00 0.00 65 1013.5
20260903193530 33 165 4.8 9.7 0.00 0.00 0.00 65 1013.5
20260903193058 33 207 1.6 9.7 0.00 0.00 0.00 64 1013.7
20260903192529 33 229 3.2 9.7 0.00 0.00 0.00 64 1013.7
20260903192030 33 207 4.8 9.7 0.00 0.00 0.00 66 1013.7
20260903191546 33 127 3.2 9.7 0.00 0.00 0.00 65 1013.8
20260903191030 33 156 3.2 6.4 0.00 0.00 0.00 66 1013.8
20260903190530 33 116 1.6 9.7 0.00 0.00 0.00 66 1013.9
20260903190051 32 123 3.2 9.7 0.00 0.00 0.00 68 1013.9
20260903185530 32 173 1.6 4.8 0.00 0.00 0.00 67 1013.9
20260903185030 32 162 1.6 6.4 0.00 0.00 0.00 68 1013.9
20260903184552 32 98 3.2 6.4 0.00 0.00 0.00 68 1013.9
20260903184030 32 316 1.6 6.4 0.00 0.00 0.00 67 1014.1
20260903183527 32 15 1.6 11.3 0.00 0.00 0.00 69 1014.1
20260903183048 31 320 3.2 11.3 0.00 0.00 0.00 69 1014.2
20260903182530 31 340 4.8 11.3 0.00 0.00 0.00 68 1014.2
20260903182030 32 300 1.6 9.7 0.00 0.00 0.00 69 1014.4
20260903181553 32 22 1.6 8.0 0.00 0.00 0.00 68 1014.2
20260903181029 32 342 3.2 9.7 0.00 0.00 0.00 66 1014.4
20260903180531 32 293 3.2 9.7 0.00 0.00 0.00 68 1014.3
20260903180054 32 323 3.2 12.9 0.00 0.00 0.00 67 1014.2
20260903175530 31 306 1.6 12.9 0.00 0.00 0.00 68 1014.4
20260903175030 32 310 4.8 14.5 0.00 0.00 0.00 66 1014.5
20260903174550 32 56 3.2 14.5 0.00 0.00 0.00 67 1014.5
20260903174030 32 312 3.2 14.5 0.00 0.00 0.00 68 1014.6
20260903173530 31 317 4.8 17.7 0.00 0.00 0.00 69 1014.7
20260903173050 31 336 6.4 17.7 0.00 0.00 0.00 69 1014.7
20260903172533 31 354 6.4 17.7 0.00 0.00 0.00 69 1014.8
20260903172030 31 311 4.8 9.7 0.00 0.00 0.00 70 1014.6
20260903171546 31 163 3.2 9.7 0.00 0.00 0.00 69 1014.8
20260903171029 31 343 4.8 12.9 0.00 0.00 0.00 71 1014.7
20260903170529 31 153 4.8 12.9 0.00 0.00 0.00 72 1014.6
20260903170054 32 352 4.8 12.9 0.00 0.00 0.00 72 1014.7
20260903165528 32 311 3.2 9.7 0.00 0.00 0.00 73 1014.5
20260903165028 31 275 3.2 9.7 0.00 0.00 0.00 76 1014.6
20260903164552 31 0 1.6 6.4 0.00 0.00 0.00 78 1014.5
20260903164028 31 14 1.6 6.4 0.00 0.00 0.00 75 1014.5
20260903163528 31 31 1.6 6.4 0.00 0.00 0.00 76 1014.6
20260903163047 31 21 1.6 6.4 0.00 0.00 0.00 75 1014.6
20260903162528 31 59 1.6 9.7 0.00 0.00 0.00 75 1014.5
20260903162028 31 299 4.8 9.7 0.00 0.00 0.00 73 1014.7
20260903161554 31 345 1.6 8.0 0.00 0.00 0.00 72 1014.2
20260903161029 32 335 0.0 8.0 0.00 0.00 0.00 72 1014.0
20260903160527 32 344 1.6 9.7 0.00 0.00 0.00 72 1013.9
20260903160051 32 239 3.2 11.3 0.00 0.00 0.00 71 1013.9
20260903155529 32 347 3.2 11.3 0.00 0.00 0.00 74 1013.9
20260903155033 32 208 3.2 11.3 0.00 0.00 0.00 71 1013.9
20260903154546 32 242 3.2 8.0 0.00 0.00 0.00 72 1014.0
20260903154029 31 251 3.2 9.7 0.00 0.00 0.00 72 1013.8
20260903153533 31 234 3.2 9.7 0.00 0.00 0.00 74 1013.9
20260903153057 31 130 3.2 11.3 0.00 0.00 0.00 74 1013.9
20260903152530 31 179 1.6 11.3 0.00 0.00 0.00 74 1014.0
20260903152032 31 210 3.2 6.4 0.00 0.00 0.00 74 1013.9
20260903151607 31 248 3.2 6.4 0.00 0.00 0.00 73 1013.9
20260903151027 31 188 1.6 6.4 0.00 0.00 0.00 74 1013.9
20260903150530 31 206 1.6 9.7 0.00 0.00 0.00 75 1013.9
20260903150058 30 193 3.2 9.7 0.00 0.00 0.00 76 1013.9
20260903145529 30 212 4.8 8.0 0.00 0.00 0.00 75 1013.9
20260903145030 30 172 3.2 8.0 0.00 0.00 0.00 75 1013.9
20260903144547 30 18 3.2 8.0 0.00 0.00 0.00 75 1013.9
20260903144028 30 172 0.0 9.7 0.00 0.00 0.00 77 1013.9
20260903143529 30 220 3.2 9.7 0.00 0.00 0.00 76 1014.0
20260903143102 30 117 1.6 8.0 0.00 0.00 0.00 76 1013.9
20260903142530 29 168 1.6 8.0 0.00 0.00 0.00 77 1013.9
20260903142029 29 195 1.6 11.3 0.00 0.00 0.00 78 1013.9
20260903141553 28 202 6.4 11.3 0.00 0.00 0.00 77 1013.8
20260903141031 28 184 3.2 9.7 0.00 0.00 0.00 79 1013.8
20260903140530 28 243 4.8 9.7 0.00 0.00 0.00 79 1013.8
20260903140047 28 257 3.2 8.0 0.00 0.00 0.00 79 1013.9
20260903135530 28 219 3.2 8.0 0.00 0.00 0.00 79 1013.9
20260903135030 28 199 3.2 9.7 0.00 0.00 0.00 80 1013.8
20260903134551 28 154 3.2 9.7 0.00 0.00 0.00 80 1013.8
20260903134029 28 149 4.8 8.0 0.00 0.00 0.00 81 1013.8
20260903133534 28 225 3.2 8.0 0.00 0.00 0.00 82 1013.8
20260903133057 28 143 1.6 8.0 0.00 0.00 0.00 83 1013.9
20260903132529 27 188 1.6 4.8 0.00 0.00 0.00 83 1013.9
20260903132029 27 165 1.6 4.8 0.00 0.00 0.00 84 1013.9
20260903131556 27 181 1.6 4.8 0.00 0.00 0.00 84 1013.9
20260903131029 27 200 0.0 4.8 0.00 0.00 0.00 85 1013.9
20260903130531 26 209 1.6 4.8 0.00 0.00 0.00 85 1014.0
20260903130051 26 149 1.6 3.2 0.00 0.00 0.00 86 1014.0
20260903125530 26 0 0.0 3.2 0.00 0.00 0.00 87 1014.1
20260903125028 26 198 0.0 3.2 0.00 0.00 0.00 87 1014.0
20260903124547 26 154 0.0 3.2 0.00 0.00 0.00 88 1014.1
20260903124027 26 0 0.0 3.2 0.00 0.00 0.00 88 1014.1
20260903123532 25 217 0.0 1.6 0.00 0.00 0.00 88 1014.1
20260903123054 25 159 0.0 1.6 0.00 0.00 0.00 89 1014.1
20260903122530 25 0 0.0 0.0 0.00 0.00 0.00 91 1014.1
20260903122030 24 0 0.0 0.0 0.00 0.00 0.00 92 1014.2
20260903121551 23 0 0.0 0.0 0.00 0.00 0.00 94 1014.1
20260903121030 23 0 0.0 0.0 0.00 0.00 0.00 96 1014.0
20260903120527 23 0 0.0 0.0 0.00 0.00 0.00 96 1014.1
20260903120053 22 0 0.0 0.0 0.00 0.00 0.00 97 1014.1
20260903115529 22 0 0.0 0.0 0.00 0.00 0.00 96 1014.1
20260903115033 22 0 0.0 0.0 0.00 0.00 0.00 96 1014.0
20260903114543 22 0 0.0 0.0 0.00 0.00 0.00 96 1014.0
20260903114029 22 0 0.0 0.0 0.00 0.00 0.00 96 1013.9
20260903113529 22 0 0.0 0.0 0.00 0.00 0.00 96 1013.9
20260903113054 22 0 0.0 0.0 0.00 0.00 0.00 95 1013.9
20260903112530 22 0 0.0 0.0 0.00 0.00 0.00 95 1013.9
20260903112030 23 0 0.0 0.0 0.00 0.00 0.00 94 1013.7
20260903111555 23 0 0.0 0.0 0.00 0.00 0.00 94 1013.9
20260903111029 23 0 0.0 0.0 0.00 0.00 0.00 94 1013.7
20260903110526 23 0 0.0 0.0 0.00 0.00 0.00 94 1013.7
20260903110049 23 0 0.0 0.0 0.00 0.00 0.00 94 1013.9
20260903105530 23 0 0.0 0.0 0.00 0.00 0.00 94 1013.8
20260903105030 23 0 0.0 0.0 0.00 0.00 0.00 93 1013.7
20260903104553 23 0 0.0 1.6 0.00 0.00 0.00 93 1013.7
20260903104029 23 0 0.0 1.6 0.00 0.00 0.00 94 1013.8
20260903103529 23 0 0.0 1.6 0.00 0.00 0.00 94 1013.7
20260903103044 23 0 0.0 1.6 0.00 0.00 0.00 95 1013.7
20260903102529 23 0 0.0 1.6 0.00 0.00 0.00 95 1013.8